Date String (YYYY-MM-DD hh:mm:ss) UTC,Instrument flags,Ambient pressure (hPa),Sample flow (lpm),Bypass flow (lpm),Sample temperature (°C),Ambient temperature (°C),ASC tube jacket temperature (°C),LED temperature (°C),Box temperature (°C),Sample RH (%),Span deviation,Mass concentration (μg/m³),Mass concentration (μg/m³),Mass concentration (μg/m³)
DateTimeUTC,F1_M11,P_M11,Q1_M11,Q2_M11,T1_M11,T2_M11,T3_M11,T4_M11,T5_M11,U1_M11,ZSPAN_M11,X0_M11,X2_M11,X1_M11
2022-07-01 11:00:00,,0830.8,4.99,0.00,30.5,29.5,00.0,39.4,32.4,25.7,0000.0,0008.06,0003.19,0002.13
2022-07-01 11:01:00,,0830.8,5.01,0.00,30.6,29.5,00.0,39.4,32.4,25.7,0000.0,0008.14,0003.23,0002.14
2022-07-01 11:02:00,,0830.7,5.02,0.00,30.6,29.5,00.0,39.4,32.4,25.7,0000.0,0007.96,0003.23,0002.16
2022-07-01 11:03:00,,0830.8,5.00,0.00,30.6,29.4,00.0,39.4,32.4,25.7,0000.0,0008.16,0003.27,0002.19
2022-07-01 11:04:00,,0830.8,4.99,0.00,30.5,28.7,00.0,39.3,32.3,25.7,0000.0,0008.27,0003.32,0002.21
2022-07-01 11:05:00,,0830.8,4.99,0.00,30.5,27.9,00.0,39.3,32.1,25.8,0000.0,0008.59,0003.38,0002.22
2022-07-01 11:06:00,,0830.8,5.00,0.00,30.4,27.6,00.0,39.2,32.0,26.3,0000.0,0008.73,0003.42,0002.24
2022-07-01 11:07:00,,0830.7,5.00,0.00,30.3,27.6,00.0,39.2,31.9,26.3,0000.0,0008.55,0003.46,0002.25
2022-07-01 11:08:00,,0830.8,4.99,0.00,30.2,27.7,00.0,39.1,31.8,26.1,0000.0,0009.07,0003.50,0002.25
2022-07-01 11:09:00,,0830.7,4.99,0.00,30.1,27.8,00.0,39.1,31.8,26.1,0000.0,0009.29,0003.48,0002.25
2022-07-01 11:10:00,,0830.7,5.00,0.00,30.1,28.0,00.0,39.1,31.8,26.1,0000.0,0009.52,0003.49,0002.24
2022-07-01 11:11:00,,0830.8,4.99,0.00,30.1,28.1,00.0,39.0,31.8,26.1,0000.0,0009.68,0003.53,0002.23
2022-07-01 11:12:00,,0830.8,5.02,0.00,30.1,28.2,00.0,39.0,31.8,26.1,0000.0,0009.64,0003.48,0002.21
2022-07-01 11:13:00,,0830.8,5.00,0.00,30.0,28.3,00.0,39.0,31.8,26.1,0000.0,0009.52,0003.48,0002.19
2022-07-01 11:14:00,,0830.8,5.00,0.00,30.0,28.4,00.0,39.0,31.8,26.1,0000.0,0008.99,0003.49,0002.16
2022-07-01 11:15:00,,0830.8,5.00,0.00,30.0,28.5,00.0,39.0,31.9,26.0,0000.0,0008.87,0003.47,0002.13
2022-07-01 11:16:00,,0830.8,5.00,0.00,30.0,28.6,00.0,38.9,31.9,26.0,0000.0,0009.01,0003.43,0002.11
2022-07-01 11:17:00,,0830.8,5.00,0.00,30.0,28.6,00.0,38.9,31.9,26.0,0000.0,0009.40,0003.43,0002.10
2022-07-01 11:18:00,,0830.8,5.00,0.00,30.0,28.7,00.0,38.9,31.9,26.0,0000.0,0009.32,0003.41,0002.09
2022-07-01 11:19:00,,0830.8,5.00,0.00,30.0,28.7,00.0,38.9,31.9,26.0,0000.0,0008.72,0003.38,0002.09
2022-07-01 11:20:00,,0830.8,5.00,0.00,30.0,28.8,00.0,38.9,31.9,26.0,0000.0,0008.32,0003.37,0002.08
2022-07-01 11:21:00,,0830.8,5.01,0.00,30.0,28.8,00.0,38.9,31.9,26.1,0000.0,0008.09,0003.35,0002.07
2022-07-01 11:22:00,,0830.8,4.99,0.00,30.1,28.8,00.0,38.9,31.9,26.2,0000.0,0007.92,0003.30,0002.06
2022-07-01 11:23:00,,0830.7,5.00,0.00,30.1,28.9,00.0,38.9,32.0,26.2,0000.0,0008.03,0003.28,0002.08
2022-07-01 11:24:00,,0830.7,4.99,0.00,30.1,28.9,00.0,38.9,32.0,26.2,0000.0,0008.07,0003.28,0002.09
2022-07-01 11:25:00,,0830.7,5.00,0.00,30.1,28.9,00.0,38.9,31.9,26.2,0000.0,0008.01,0003.24,0002.12
2022-07-01 11:26:00,,0830.8,5.00,0.00,30.1,28.9,00.0,38.9,32.0,26.2,0000.0,0008.34,0003.27,0002.13
2022-07-01 11:27:00,,0830.8,5.00,0.00,30.1,28.9,00.0,38.9,32.0,26.2,0000.0,0008.32,0003.30,0002.17
2022-07-01 11:28:00,,0830.8,5.00,0.00,30.1,28.9,00.0,38.9,32.0,26.1,0000.0,0008.34,0003.31,0002.19
2022-07-01 11:29:00,,0830.8,5.00,0.00,30.1,28.9,00.0,38.9,32.0,26.0,0000.0,0008.25,0003.31,0002.21
2022-07-01 11:30:00,,0830.8,4.99,0.00,30.1,28.9,00.0,38.9,32.0,26.1,0000.0,0008.38,0003.36,0002.23
2022-07-01 11:31:00,,0830.9,5.00,0.00,30.1,28.9,00.0,38.9,32.0,26.1,0000.0,0008.67,0003.37,0002.25
2022-07-01 11:32:00,,0830.8,4.99,0.00,30.1,29.0,00.0,38.9,32.0,26.0,0000.0,0009.38,0003.39,0002.27
2022-07-01 11:33:00,,0830.8,5.01,0.00,30.1,29.0,00.0,38.9,32.0,26.0,0000.0,0010.41,0003.42,0002.30
2022-07-01 11:34:00,,0830.7,5.00,0.00,30.1,29.0,00.0,38.9,32.0,26.0,0000.0,0010.56,0003.42,0002.30
2022-07-01 11:35:00,,0830.8,5.00,0.00,30.1,29.0,00.0,38.9,32.0,26.0,0000.0,0010.44,0003.39,0002.31
2022-07-01 11:36:00,,0830.8,4.99,0.00,30.1,29.0,00.0,38.9,32.0,25.9,0000.0,0011.15,0003.43,0002.34
2022-07-01 11:37:00,,0830.7,5.00,0.00,30.1,29.0,00.0,39.0,32.0,25.9,0000.0,0010.97,0003.48,0002.37
2022-07-01 11:38:00,,0830.7,5.01,0.00,30.1,29.0,00.0,39.0,32.0,25.9,0000.0,0010.82,0003.51,0002.40
2022-07-01 11:39:00,,0830.7,5.00,0.00,30.1,29.0,00.0,39.0,32.0,25.9,0000.0,0010.35,0003.53,0002.44
2022-07-01 11:40:00,,0830.6,4.99,0.00,30.1,29.0,00.0,39.0,32.0,25.8,0000.0,0010.50,0003.53,0002.48
2022-07-01 11:41:00,,0830.7,5.01,0.00,30.1,29.0,00.0,39.0,32.0,25.8,0000.0,0010.75,0003.51,0002.52
2022-07-01 11:42:00,,0830.7,5.01,0.00,30.1,29.0,00.0,39.0,32.0,25.8,0000.0,0010.64,0003.50,0002.53
2022-07-01 11:43:00,,0830.7,5.00,0.00,30.1,29.0,00.0,39.0,32.0,25.7,0000.0,0009.90,0003.50,0002.55
2022-07-01 11:44:00,,0830.7,4.99,0.00,30.1,29.0,00.0,39.0,32.0,25.7,0000.0,0009.00,0003.47,0002.54
2022-07-01 11:45:00,,0830.7,5.00,0.00,30.1,29.0,00.0,39.0,32.0,25.8,0000.0,0008.34,0003.45,0002.54
2022-07-01 11:46:00,,0830.6,5.00,0.00,30.1,29.0,00.0,39.0,32.0,25.8,0000.0,0008.70,0003.45,0002.54
2022-07-01 11:47:00,,0830.7,5.00,0.00,30.1,29.0,00.0,39.0,32.0,25.7,0000.0,0008.96,0003.45,0002.54
2022-07-01 11:48:00,,0830.6,4.99,0.00,30.1,29.1,00.0,39.0,32.0,25.6,0000.0,0008.79,0003.41,0002.52
2022-07-01 11:49:00,,0830.6,5.00,0.00,30.1,29.1,00.0,39.0,32.0,25.7,0000.0,0008.90,0003.38,0002.49
2022-07-01 11:50:00,,0830.6,5.00,0.00,30.2,29.1,00.0,39.0,32.0,25.7,0000.0,0009.00,0003.36,0002.46
2022-07-01 11:51:00,,0830.7,5.00,0.00,30.2,29.1,00.0,39.0,32.0,25.7,0000.0,0008.83,0003.35,0002.44
2022-07-01 11:52:00,,0830.7,5.00,0.00,30.2,29.1,00.0,39.0,32.0,25.7,0000.0,0008.41,0003.35,0002.39
2022-07-01 11:53:00,,0830.8,5.00,0.00,30.2,29.1,00.0,39.0,32.0,25.8,0000.0,0008.38,0003.37,0002.38
2022-07-01 11:54:00,,0830.8,5.00,0.00,30.2,29.1,00.0,39.0,32.0,25.8,0000.0,0008.45,0003.36,0002.37
2022-07-01 11:55:00,,0830.8,4.99,0.00,30.2,29.1,00.0,39.0,32.0,25.8,0000.0,0009.44,0003.41,0002.38
2022-07-01 11:56:00,,0830.7,5.01,0.00,30.2,29.1,00.0,39.0,32.0,25.7,0000.0,0010.04,0003.46,0002.40
2022-07-01 11:57:00,,0830.7,5.00,0.00,30.2,29.1,00.0,39.0,32.0,25.7,0000.0,0010.44,0003.47,0002.40
2022-07-01 11:58:00,,0830.7,4.99,0.00,30.2,29.1,00.0,39.0,32.0,25.7,0000.0,0009.64,0003.45,0002.39
2022-07-01 11:59:00,,0830.7,5.01,0.00,30.2,29.1,00.0,39.0,32.1,25.7,0000.0,0009.57,0003.43,0002.39
